ISS (NAUKA)

Last updated on Mon Sep 16 2024 00:02:07 GMT+0000 (Coordinated Universal Time)

1 49044U 21066A 24258.84707756 .00035823 00000+0 65197-3 0 9992 2 49044 51.6384 231.2537 0007193 355.2122 86.3485 15.49128767178496
UTC large
Height (km)
Speed (km/s)
/
Latitude / Longitude
Inclination (degrees)
Orbital Period (minutes)
Azimuth
Elevation
Range (km)
Doppler Factor

Next 0 passes for location: London (51.5072 / 0.1276)

Sorry there are no passes over London.